Flag for France Weather past 2 weeks in Royan, France

Now
77 °F

Partly sunny.


Feels Like: 78 °F
Forecast: 62 / 82 °F
Wind: 9 mph from Southwest

Location: Cognac Airport

Current Time: Aug 4, 2015 at 6:21:31 PM

Latest Report: Aug 4, 2015 at 6:00 PM


Visibility: N/A

Pressure: 30.07 "Hg

Humidity: 44%

Dew point: 54 °F

Location of RoyanLocation

Historic Weather in Royan — Graph

°F

Royan temperature yesterday

Maximum temperature yesterday: 93 °F (at 4:00 PM)
Minimum temperature yesterday: 61 °F (at 6:00 AM)
Average temperature yesterday: 77 °F

Past Weeks' High & Low Weather Summary

 TemperatureHumidityPressure
High93 °F (Aug 3, 4:00 PM)100% (Jul 29, 2:00 AM)30.15 "Hg (Jul 29, 2:00 AM)
Low52 °F (Jul 30, 6:00 AM)21% (Aug 2, 5:30 PM)29.80 "Hg (Jul 24, 5:30 PM)
Average69 °F63%29.99 "Hg
* Reported Jul 20 5:00 PM — Aug 4 5:00 PM, Royan, Weather by CustomWeather, © 2015

Note: Actual official high and low records may vary slightly from our data, if they occured in-between our weather recording intervals... More about our weather records

Advertising

Royan weather history for previous 24 hours

 ConditionsComfort  
Time TempWeatherWind HumidityBarometerVisibility
5:00 PM
Tue, Aug 4
75 °FPartly sunny.3 mph54%30.09 "HgN/A
4:30 PM75 °FBroken clouds.6 mph57%30.09 "HgN/A
4:00 PM73 °FMostly cloudy.5 mph57%30.09 "HgN/A
3:30 PM73 °FCloudy.6 mph57%30.09 "HgN/A
3:00 PM73 °FCloudy.3 mph57%30.12 "HgN/A
2:30 PM73 °FScattered clouds.6 mph57%30.12 "HgN/A
2:00 PM72 °FMostly cloudy.6 mph61%30.12 "HgN/A
1:30 PM72 °FOvercast.7 mph61%30.12 "HgN/A
1:00 PM72 °FMostly cloudy.8 mph61%30.12 "HgN/A
12:30 PM72 °FPartly sunny.3 mph61%30.12 "HgN/A
12:00 PM70 °FMostly cloudy.3 mph60%30.12 "HgN/A
11:30 AM70 °FMore clouds than sun.2 mph64%30.12 "HgN/A
11:00 AM68 °FMore clouds than sun.2 mph69%30.12 "HgN/A
10:30 AM66 °FOvercast.6 mph73%30.12 "HgN/A
10:00 AM66 °FOvercast.7 mph73%30.09 "HgN/A
9:30 AM64 °FSunny.6 mph88%30.09 "Hg10 mi
9:00 AM64 °FSunny.6 mph88%30.09 "Hg10 mi
8:30 AM64 °FSunny.6 mph88%30.07 "Hg10 mi
8:00 AM64 °FOvercast.7 mph94%30.07 "HgN/A
7:30 AM64 °FClear.7 mph94%30.07 "Hg10 mi
7:00 AM66 °FOvercast.5 mph94%30.07 "HgN/A
6:30 AM66 °FClear.6 mph94%30.04 "Hg10 mi
6:00 AM66 °FMostly cloudy.3 mph94%30.04 "HgN/A
5:00 AM66 °FMild.5 mph94%30.04 "HgN/A
4:30 AM66 °FMild.3 mph94%30.01 "HgN/A
4:00 AM66 °FThunderstorms. Overcast.3 mph94%30.01 "Hg5 mi
3:30 AM66 °FLight rain. Mostly cloudy.3 mph94%30.01 "HgN/A
3:00 AM66 °FLight rain. Passing clouds.5 mph94%30.01 "HgN/A
2:30 AM66 °FStrong thunderstorms. Fog.6 mph94%29.98 "Hg3 mi
2:00 AM66 °FThunderstorms. Mostly cloudy.5 mph94%30.01 "Hg4 mi
1:30 AM66 °FThundershowers. Partly cloudy.3 mph94%30.01 "HgN/A
1:00 AM66 °FThunderstorms. Overcast.6 mph94%30.01 "HgN/A
12:30 AM68 °FLight rain. Mostly cloudy.9 mph88%30.01 "HgN/A
12:00 AM68 °FThundershowers. Partly cloudy.10 mph88%29.98 "HgN/A
11:30 PM
Mon, Aug 3
70 °FThunderstorms. Overcast.8 mph83%29.98 "HgN/A
11:00 PM70 °FMild.9 mph78%29.98 "HgN/A
10:30 PM70 °FLight rain. Overcast.10 mph83%29.95 "HgN/A
10:00 PM70 °FPartly sunny.9 mph78%29.92 "HgN/A
9:30 PM73 °FStrong thunderstorms. Mostly cloudy.5 mph65%29.92 "HgN/A
9:00 PM79 °FThundershowers. Cloudy.12 mph39%29.92 "HgN/A
8:30 PM79 °FSunny.15 mph48%29.89 "Hg10 mi
8:00 PM81 °FSunny.15 mph48%29.89 "Hg10 mi
7:30 PM84 °FSunny.15 mph48%29.89 "Hg10 mi
7:00 PM88 °FSunny.16 mph46%29.89 "Hg10 mi
6:30 PM91 °FSunny.14 mph38%29.89 "Hg10 mi
6:00 PM93 °FSunny.15 mph34%29.89 "Hg10 mi
Weather by CustomWeather, © 2015

See weather overviewHow to use our weather pages